This is the latest recevied weather packets stored in our database for station/object VK2ZAZ-10. If no packets are shown the sender has not sent any weather packets the latest 10 day(s).
| Time | Temp. | Humidity | Pressure | Rain* | Wind** | Luminosity | Snow |
|---|---|---|---|---|---|---|---|
| 1777515244 | 22.22° C | 54% | 1032 hPa | - | - | - | - |
| 1777513442 | 21.67° C | 54% | 1032.5 hPa | - | - | - | - |
| 1777511644 | 21.67° C | 55% | 1032.9 hPa | - | - | - | - |
| 1777509844 | 21.11° C | 55% | 1033.4 hPa | - | - | - | - |
| 1777508043 | 21.11° C | 54% | 1033.8 hPa | - | - | - | - |
| 1777506242 | 20.56° C | 55% | 1034 hPa | - | - | - | - |
| 1777504442 | 20° C | 56% | 1034.3 hPa | - | - | - | - |
| 1777502642 | 18.89° C | 57% | 1034.4 hPa | - | - | - | - |
| 1777500842 | 17.78° C | 58% | 1034.4 hPa | - | - | - | - |
| 1777499043 | 16.67° C | 60% | 1034.3 hPa | - | - | - | - |
| 1777497242 | 16.67° C | 58% | 1033.9 hPa | - | - | - | - |
| 1777495442 | 17.22° C | 57% | 1033.6 hPa | - | - | - | - |
| 1777493642 | 17.22° C | 57% | 1033.4 hPa | - | - | - | - |
| 1777491843 | 17.78° C | 57% | 1033.3 hPa | - | - | - | - |
| 1777490041 | 17.78° C | 57% | 1033 hPa | - | - | - | - |
| 1777488242 | 17.78° C | 58% | 1033.1 hPa | - | - | - | - |
| 1777486441 | 18.33° C | 57% | 1033 hPa | - | - | - | - |
| 1777484641 | 18.33° C | 57% | 1033 hPa | - | - | - | - |
| 1777482841 | 18.89° C | 57% | 1032.8 hPa | - | - | - | - |
| 1777481041 | 18.89° C | 57% | 1033.1 hPa | - | - | - | - |
| 1777479241 | 18.89° C | 57% | 1033.1 hPa | - | - | - | - |
| 1777477441 | 19.44° C | 57% | 1033.3 hPa | - | - | - | - |
| 1777475641 | 19.44° C | 57% | 1033.5 hPa | - | - | - | - |
| 1777473842 | 19.44° C | 57% | 1033.5 hPa | - | - | - | - |
| 1777472043 | 20° C | 57% | 1033.5 hPa | - | - | - | - |
* Rain since midnight (hover to see other rain measurements)
** Current wind speed in m/s (hover to see current wind gust speed)